{"data":{"norad_id":68108,"intl_designator":"2026-044H","name":"STARLINK-37017","alt_names":[],"object_type":"PAYLOAD","status":"ACTIVE","operator":null,"country":"US","launch_date":"2026-03-08","launch_site_code":"AFWTR","launch_vehicle":null,"mission":null,"orbit_class":"UNKNOWN","rcs_meters":null,"size_class":null,"mass_kg":null,"dimensions":null,"purposes":["comms"],"wikipedia_slug":null,"has_3d_model":false,"image_url":null,"decayed_at":null,"tle_current":{"epoch":"2026-09-19T16:55:22.876896Z","epoch_age_seconds":124833,"freshness":"FRESH","line1":"1 68108U 26044H   26262.70512589  .00009266  00000+0  28898-3 0  9994","line2":"2 68108  97.2852 221.6325 0001566  95.5600 264.5822 15.33446003 31318","mean_motion":15.33446003,"eccentricity":0.0001566,"inclination_deg":97.2852,"raan_deg":221.6325,"arg_perigee_deg":95.56,"mean_anomaly_deg":264.5822,"bstar":0.00028898,"rev_number":3131,"period_min":93.906143234442,"perigee_km":464.46847040943,"apogee_km":466.61191010542,"semimajor_km":6843.6771902574,"source":"CELESTRAK","updated_at":"2026-09-20T09:00:43.786433Z"}}}